Home > Time Zones > World Clock > Weather > Iran > Bijar > Past weeks

Flag for Iran Weather past 2 weeks in Bijar, Iran

Now
86 °F

Sunny.


Feels Like: 83 °F
Forecast: 67 / 104 °F
Wind: 5 mph from East

Location: Sanandaj Airport

Current Time: Jul 24, 2014 at 10:15:50 PM

Latest Report: Jul 24, 2014 at 9:24 PM


Visibility: 10 mi

Pressure: 29.77 "Hg

Humidity: 18%

Dew point: 37 °F

Location of BijarLocation

Historic Weather in Bijar — Graph

°F

Bijar temperature yesterday

Maximum temperature yesterday: 100 °F (at 6:00 PM)
Minimum temperature yesterday: 61 °F (at 5:23 AM)
Average temperature yesterday: 84 °F

Past Weeks' High & Low Weather Summary

 TemperatureHumidityPressure
High106 °F (Jul 17, 2:30 PM)49% (Jul 21, 7:00 AM)29.95 "Hg (Jul 21, 7:00 AM)
Low57 °F (Jul 10, 6:30 AM)5% (Jul 10, 5:30 PM)29.68 "Hg (Jul 20, 4:30 PM)
Average86 °F19%29.83 "Hg
* Reported Jul 9 8:22 PM — Jul 24 8:25 PM, Bijar, Weather by CustomWeather, © 2014

Note: Actual official high and low records may vary slightly from our data, if they occured in-between our weather recording intervals... More about our weather records

Advertising

Bijar weather history for previous 24 hours

 ConditionsComfort  
Time TempWeatherWind HumidityBarometerVisibility
8:25 PM
Jul 24
93 °FSunny.No wind12%29.77 "Hg10 mi
6:20 PM102 °FPassing clouds.14 mph8%29.74 "HgN/A
6:06 PM102 °FPassing clouds.14 mph8%29.74 "HgN/A
5:30 PM102 °FPassing clouds.16 mph7%29.74 "HgN/A
5:00 PM104 °FSunny.18 mph7%29.74 "Hg10 mi
4:30 PM104 °FSunny.12 mph7%29.74 "Hg10 mi
4:00 PM104 °FSunny.12 mph8%29.77 "Hg10 mi
3:30 PM102 °FSunny.9 mph10%29.77 "Hg10 mi
2:30 PM97 °FSunny.5 mph13%29.80 "Hg10 mi
1:30 PM95 °FSunny.5 mph13%29.83 "Hg10 mi
12:30 PM93 °FSunny.2 mph14%29.86 "Hg10 mi
11:30 AM88 °FSunny.7 mph18%29.89 "Hg10 mi
9:30 AM81 °FSunny.12 mph23%29.89 "Hg10 mi
8:30 AM79 °FSunny.12 mph24%29.89 "Hg10 mi
7:30 AM75 °FClear.12 mph25%29.89 "Hg10 mi
6:24 AM73 °FClear.7 mph27%29.89 "Hg10 mi
5:23 AM75 °FClear.12 mph25%29.86 "Hg10 mi
4:26 AM77 °FClear.12 mph24%29.86 "Hg10 mi
3:24 AM79 °FClear.12 mph23%29.86 "Hg10 mi
2:24 AM79 °FClear.12 mph21%29.86 "Hg10 mi
1:22 AM81 °FClear.14 mph20%29.86 "Hg10 mi
12:23 AM82 °FClear.7 mph19%29.86 "Hg10 mi
11:22 PM
Jul 23
86 °FClear.14 mph17%29.83 "Hg10 mi
10:24 PM82 °FClear.7 mph17%29.80 "Hg10 mi
Weather by CustomWeather, © 2014

See weather overviewHow to use our weather pages